When you browse on this site, cookies collect data to enhance your experience and personalize the content and advertising you see.
Visit our Privacy Policy to learn more. By continuing to use the site, you agree to this use of cookies and data.

Hourly Weather Podkaszczor

Today, 6 July, Monday

Time Temperature Precipitation Wind Pressure Humidity
00:00 +20°C° 0 mm 3 mps 735 mmHg 87%
01:00 +20°C° 0 mm 3 mps 735 mmHg 89%
02:00 +20°C° 0 mm 3 mps 735 mmHg 90%
03:00 +19°C° 0 mm 3 mps 734 mmHg 90%
04:00 +19°C° 0 mm 3 mps 734 mmHg 91%
05:00 +20°C° 0 mm 3 mps 734 mmHg 87%
06:00 +22°C° 0 mm 3 mps 734 mmHg 83%
07:00 +24°C° 0 mm 3 mps 734 mmHg 79%
08:00 +25°C° 0 mm 4 mps 734 mmHg 74%
09:00 +26°C° 0 mm 4 mps 734 mmHg 68%
10:00 +27°C° 0 mm 4 mps 734 mmHg 62%
11:00 +27°C° 0.6 mm 5 mps 733 mmHg 66%
12:00 +27°C° 0.6 mm 6 mps 733 mmHg 69%
13:00 +26°C° 0.6 mm 7 mps 733 mmHg 72%
14:00 +23°C° 0.4 mm 6 mps 733 mmHg 72%
15:00 +21°C° 0.4 mm 6 mps 733 mmHg 72%
16:00 +19°C° 0.4 mm 5 mps 733 mmHg 72%
17:00 +19°C° 0 mm 4 mps 733 mmHg 73%
18:00 +18°C° 0 mm 4 mps 734 mmHg 74%
19:00 +18°C° 0 mm 3 mps 734 mmHg 74%
20:00 +17°C° 0 mm 3 mps 735 mmHg 73%
21:00 +17°C° 0 mm 4 mps 735 mmHg 72%
22:00 +15°C° 0 mm 4 mps 736 mmHg 71%
23:00 +14°C° 0.4 mm 4 mps 736 mmHg 76%

Tomorrow, 7 July, Tuesday

Time Temperature Precipitation Wind Pressure Humidity
00:00 +14°C° 0.4 mm 3 mps 737 mmHg 82%
01:00 +13°C° 0.4 mm 3 mps 737 mmHg 88%
02:00 +12°C° 0.2 mm 3 mps 737 mmHg 88%
03:00 +12°C° 0.2 mm 3 mps 737 mmHg 88%
04:00 +12°C° 0.2 mm 3 mps 737 mmHg 88%
05:00 +12°C° 0 mm 4 mps 737 mmHg 86%
06:00 +12°C° 0 mm 5 mps 737 mmHg 84%
07:00 +13°C° 0 mm 5 mps 738 mmHg 82%
08:00 +14°C° 0.1 mm 5 mps 738 mmHg 76%
09:00 +15°C° 0.1 mm 5 mps 738 mmHg 71%
10:00 +16°C° 0.1 mm 5 mps 738 mmHg 65%
11:00 +17°C° 0.3 mm 5 mps 738 mmHg 64%
12:00 +17°C° 0.3 mm 6 mps 738 mmHg 62%
13:00 +17°C° 0.3 mm 6 mps 738 mmHg 61%
14:00 +17°C° 0.1 mm 6 mps 738 mmHg 61%
15:00 +17°C° 0.1 mm 6 mps 738 mmHg 61%
16:00 +17°C° 0.1 mm 6 mps 738 mmHg 61%
17:00 +16°C° 0 mm 5 mps 738 mmHg 65%
18:00 +15°C° 0 mm 4 mps 738 mmHg 70%
19:00 +15°C° 0 mm 2 mps 739 mmHg 74%
20:00 +14°C° 0 mm 2 mps 739 mmHg 77%
21:00 +13°C° 0 mm 1 mps 739 mmHg 79%
22:00 +11°C° 0 mm 1 mps 739 mmHg 82%
23:00 +11°C° 0 mm 1 mps 739 mmHg 82%

Day after tomorrow, 8 July, Wednesday

Time Temperature Precipitation Wind Pressure Humidity
00:00 +11°C° 0 mm 1 mps 739 mmHg 83%
01:00 +11°C° 0 mm 1 mps 739 mmHg 83%
02:00 +9°C° 0 mm 2 mps 738 mmHg 83%
03:00 +9°C° 0 mm 2 mps 738 mmHg 83%
04:00 +9°C° 0 mm 2 mps 738 mmHg 84%
05:00 +11°C° 0 mm 3 mps 738 mmHg 80%
06:00 +13°C° 0 mm 3 mps 738 mmHg 77%
07:00 +14°C° 0 mm 4 mps 738 mmHg 74%
08:00 +17°C° 0 mm 4 mps 738 mmHg 68%
09:00 +17°C° 0 mm 5 mps 738 mmHg 63%
10:00 +20°C° 0 mm 5 mps 738 mmHg 58%
11:00 +19°C° 0.1 mm 5 mps 738 mmHg 62%
12:00 +19°C° 0.1 mm 4 mps 738 mmHg 66%
13:00 +18°C° 0.1 mm 4 mps 737 mmHg 70%
14:00 +17°C° 0 mm 4 mps 737 mmHg 75%
15:00 +15°C° 0 mm 4 mps 737 mmHg 80%
16:00 +14°C° 0 mm 4 mps 737 mmHg 85%
17:00 +14°C° 0 mm 3 mps 738 mmHg 85%
18:00 +13°C° 0 mm 3 mps 738 mmHg 86%
19:00 +13°C° 0 mm 3 mps 738 mmHg 86%
20:00 +13°C° 0 mm 3 mps 738 mmHg 88%
21:00 +12°C° 0 mm 3 mps 739 mmHg 90%
22:00 +12°C° 0 mm 3 mps 739 mmHg 92%
23:00 +12°C° 0 mm 3 mps 739 mmHg 93%

9 July, Thursday

Time Temperature Precipitation Wind Pressure Humidity
00:00 +12°C° 0 mm 2 mps 739 mmHg 94%
01:00 +12°C° 0 mm 2 mps 739 mmHg 96%
02:00 +10°C° 0 mm 2 mps 739 mmHg 96%
03:00 +10°C° 0 mm 2 mps 740 mmHg 96%
04:00 +10°C° 0 mm 2 mps 740 mmHg 96%
05:00 +13°C° 0 mm 2 mps 740 mmHg 91%
06:00 +14°C° 0 mm 2 mps 740 mmHg 86%
07:00 +16°C° 0 mm 2 mps 740 mmHg 81%
08:00 +17°C° 0 mm 2 mps 741 mmHg 75%
09:00 +18°C° 0 mm 2 mps 741 mmHg 68%
10:00 +20°C° 0 mm 2 mps 741 mmHg 62%
11:00 +21°C° 0 mm 2 mps 741 mmHg 60%
12:00 +21°C° 0 mm 2 mps 740 mmHg 57%
13:00 +23°C° 0 mm 2 mps 740 mmHg 55%
14:00 +23°C° 0.1 mm 2 mps 740 mmHg 55%
15:00 +24°C° 0.1 mm 1 mps 740 mmHg 55%
16:00 +24°C° 0.1 mm 1 mps 740 mmHg 55%
17:00 +23°C° 0.1 mm 1 mps 739 mmHg 62%
18:00 +21°C° 0.1 mm 2 mps 739 mmHg 70%
19:00 +19°C° 0.1 mm 2 mps 739 mmHg 77%
20:00 +18°C° 0 mm 2 mps 739 mmHg 80%
21:00 +18°C° 0 mm 2 mps 739 mmHg 82%
22:00 +17°C° 0 mm 2 mps 739 mmHg 85%
23:00 +16°C° 0 mm 2 mps 739 mmHg 86%

10 July, Friday

Time Temperature Precipitation Wind Pressure Humidity
00:00 +16°C° 0 mm 2 mps 739 mmHg 87%
01:00 +16°C° 0 mm 2 mps 739 mmHg 89%
02:00 +16°C° 0 mm 2 mps 738 mmHg 89%
03:00 +15°C° 0 mm 2 mps 738 mmHg 90%
04:00 +15°C° 0 mm 2 mps 738 mmHg 90%
05:00 +17°C° 0 mm 2 mps 738 mmHg 85%
06:00 +19°C° 0 mm 2 mps 738 mmHg 80%
07:00 +21°C° 0 mm 2 mps 738 mmHg 75%
08:00 +22°C° 0 mm 3 mps 738 mmHg 70%
09:00 +25°C° 0 mm 3 mps 738 mmHg 65%
10:00 +26°C° 0 mm 4 mps 737 mmHg 60%
11:00 +27°C° 0 mm 4 mps 737 mmHg 57%
12:00 +28°C° 0 mm 5 mps 737 mmHg 54%
13:00 +29°C° 0 mm 5 mps 736 mmHg 52%
14:00 +29°C° 0 mm 5 mps 736 mmHg 53%
15:00 +29°C° 0 mm 5 mps 736 mmHg 55%
16:00 +29°C° 0 mm 4 mps 736 mmHg 56%
17:00 +27°C° 0 mm 4 mps 735 mmHg 60%
18:00 +26°C° 0 mm 3 mps 735 mmHg 64%
19:00 +25°C° 0 mm 3 mps 735 mmHg 68%
20:00 +24°C° 0 mm 3 mps 735 mmHg 70%
21:00 +22°C° 0 mm 3 mps 735 mmHg 71%
22:00 +21°C° 0 mm 2 mps 735 mmHg 73%
23:00 +20°C° 0.4 mm 2 mps 735 mmHg 77%

11 July, Saturday

Time Temperature Precipitation Wind Pressure Humidity
00:00 +19°C° 0.4 mm 2 mps 735 mmHg 81%
01:00 +19°C° 0.4 mm 2 mps 735 mmHg 85%
02:00 +18°C° 0.9 mm 2 mps 735 mmHg 89%
03:00 +18°C° 0.9 mm 2 mps 735 mmHg 92%
04:00 +18°C° 0.9 mm 2 mps 736 mmHg 96%
05:00 +18°C° 0.4 mm 3 mps 736 mmHg 95%
06:00 +18°C° 0.4 mm 3 mps 737 mmHg 93%
07:00 +18°C° 0.4 mm 4 mps 737 mmHg 92%
08:00 +16°C° 0.9 mm 5 mps 737 mmHg 92%
09:00 +14°C° 0.9 mm 6 mps 738 mmHg 93%
10:00 +13°C° 0.9 mm 6 mps 738 mmHg 93%
11:00 +12°C° 2.1 mm 5 mps 739 mmHg 93%
12:00 +12°C° 2.1 mm 5 mps 739 mmHg 92%
13:00 +11°C° 2.1 mm 4 mps 739 mmHg 92%
14:00 +12°C° 0.5 mm 4 mps 740 mmHg 88%
15:00 +13°C° 0.5 mm 3 mps 740 mmHg 84%
16:00 +14°C° 0.5 mm 3 mps 741 mmHg 79%
17:00 +14°C° 0 mm 3 mps 741 mmHg 81%
18:00 +15°C° 0 mm 2 mps 741 mmHg 82%
19:00 +14°C° 0 mm 1 mps 741 mmHg 83%
20:00 +13°C° 0 mm 2 mps 741 mmHg 85%
21:00 +13°C° 0 mm 2 mps 741 mmHg 87%
22:00 +11°C° 0 mm 3 mps 742 mmHg 88%
23:00 +10°C° 0 mm 3 mps 742 mmHg 89%
Show more